User: anonymous   Login
Location: Mount Kobau Star Party
(49.1167°N, 119.7333°W)
Time: 13:19:34
(UTC-07:00)
Language:

ACS3 Solar Sail - Orbit

View from above orbital plane
View from above orbital plane
View from above satellite
View from above satellite

Ground track
Ground track

The orbit data is extracted from the following two-line orbital elements,

1 59588U 24077B   24194.41323878  .00000052  00000-0  95217-4 0  9996
2 59588  97.4051 256.7336 0020702  29.4441 330.7871 13.67690982 10854
Epoch (UTC): 12 July 2024 09:55:03
Eccentricity: 0.0020702
inclination: 97.4051°
perigee height: 992 km
apogee height: 1023 km
right ascension of ascending node: 256.7336°
argument of perigee: 29.4441°
revolutions per day: 13.67690982
mean anomaly at epoch: 330.7871°
orbit number at epoch: 1085

The dashed part of the orbit path shows where the satellite is in the earth's shadow,  

DLR